TimeMST,TemperatureF,Dew PointF,Humidity,Sea Level PressureIn,VisibilityMPH,Wind Direction,Wind SpeedMPH,Gust SpeedMPH,PrecipitationIn,Events,Conditions,WindDirDegrees,DateUTC
12:15 AM,65.3,59.2,81,29.71,10.0,South,4.6,-,N/A,,Scattered Clouds,180,2014-02-20 07:15:00
12:35 AM,65.3,59.4,81,29.71,10.0,Calm,Calm,-,N/A,,Overcast,0,2014-02-20 07:35:00
12:55 AM,65.3,59.4,81,29.71,10.0,WNW,3.5,-,N/A,,Overcast,300,2014-02-20 07:55:00
1:15 AM,65.3,59.2,81,29.71,10.0,Calm,Calm,-,N/A,,Overcast,0,2014-02-20 08:15:00
1:35 AM,65.3,59.0,80,29.71,10.0,SSE,3.5,-,N/A,,Overcast,150,2014-02-20 08:35:00
1:55 AM,65.3,59.0,80,29.71,10.0,South,8.1,17.3,N/A,,Overcast,180,2014-02-20 08:55:00
2:35 AM,65.7,59.0,79,29.71,10.0,South,3.5,-,N/A,,Overcast,170,2014-02-20 09:35:00
3:40 AM,65.7,59.0,79,29.72,10.0,South,6.9,-,N/A,,Overcast,180,2014-02-20 10:40:00
3:55 AM,65.7,59.0,79,29.72,10.0,South,4.6,-,N/A,,Overcast,190,2014-02-20 10:55:00
4:15 AM,65.5,59.0,80,29.73,10.0,SSW,8.1,-,N/A,,Overcast,200,2014-02-20 11:15:00
4:35 AM,65.7,59.4,80,29.73,10.0,South,8.1,-,N/A,,Overcast,190,2014-02-20 11:35:00
4:55 AM,65.7,59.5,81,29.75,10.0,SW,6.9,-,N/A,,Overcast,220,2014-02-20 11:55:00
5:40 AM,65.7,60.1,82,29.76,10.0,SSW,5.8,-,N/A,,Overcast,200,2014-02-20 12:40:00
5:55 AM,65.8,60.1,82,29.77,10.0,SSW,6.9,-,N/A,,Overcast,200,2014-02-20 12:55:00
6:35 AM,66.2,60.4,82,29.78,7.0,SSW,5.8,-,N/A,,Overcast,200,2014-02-20 13:35:00
6:55 AM,66.2,60.6,82,29.79,7.0,Calm,Calm,-,N/A,,Overcast,0,2014-02-20 13:55:00
7:15 AM,66.4,60.8,82,29.79,7.0,SSW,3.5,-,N/A,,Overcast,200,2014-02-20 14:15:00
7:35 AM,67.3,61.2,81,29.80,7.0,SSW,3.5,-,N/A,,Overcast,210,2014-02-20 14:35:00
7:55 AM,68.0,61.2,79,29.81,10.0,SW,4.6,-,N/A,,Overcast,230,2014-02-20 14:55:00
8:15 AM,68.2,61.2,78,29.82,10.0,SSW,5.8,-,N/A,,Overcast,210,2014-02-20 15:15:00
8:35 AM,68.9,61.3,77,29.83,7.0,SW,4.6,-,N/A,,Overcast,220,2014-02-20 15:35:00
8:55 AM,69.1,61.2,76,29.84,7.0,SW,6.9,-,N/A,,Overcast,230,2014-02-20 15:55:00
9:55 AM,73.8,60.4,63,29.87,10.0,West,4.6,-,N/A,,Mostly Cloudy,270,2014-02-20 16:55:00
10:55 AM,73.9,54.9,51,29.87,10.0,NNW,11.5,17.3,N/A,,Mostly Cloudy,330,2014-02-20 17:55:00
11:15 AM,75.6,53.1,45,29.87,10.0,NNW,13.8,19.6,N/A,,Scattered Clouds,340,2014-02-20 18:15:00
11:55 AM,75.4,40.8,29,29.87,10.0,NNW,8.1,-,N/A,,Clear,340,2014-02-20 18:55:00
12:15 PM,78.1,39.4,25,29.86,10.0,North,6.9,-,N/A,,Clear,360,2014-02-20 19:15:00
12:35 PM,78.4,34.3,20,29.85,10.0,NW,12.7,19.6,N/A,,Clear,320,2014-02-20 19:35:00
1:35 PM,79.7,24.6,13,29.86,10.0,NNW,15.0,26.5,N/A,,Clear,330,2014-02-20 20:35:00
4:15 PM,71.2,25.7,18,29.93,10.0,NNW,15.0,21.9,N/A,,Clear,340,2014-02-20 23:15:00
4:35 PM,69.3,26.2,20,29.95,10.0,North,11.5,23.0,N/A,,Clear,350,2014-02-20 23:35:00
4:55 PM,67.8,27.7,22,29.95,10.0,North,10.4,16.1,N/A,,Clear,360,2014-02-20 23:55:00
5:15 PM,66.6,27.5,23,29.97,10.0,North,12.7,19.6,N/A,,Clear,360,2014-02-21 00:15:00
5:35 PM,64.9,27.0,24,29.99,10.0,North,9.2,18.4,N/A,,Clear,360,2014-02-21 00:35:00
5:55 PM,63.5,29.3,28,30.00,10.0,North,8.1,-,N/A,,Clear,360,2014-02-21 00:55:00
6:15 PM,62.6,27.3,26,30.02,10.0,North,8.1,-,N/A,,Clear,350,2014-02-21 01:15:00
6:35 PM,61.7,28.2,28,30.03,10.0,NNW,10.4,-,N/A,,Clear,340,2014-02-21 01:35:00
6:55 PM,60.3,30.2,32,30.05,10.0,North,8.1,-,N/A,,Clear,360,2014-02-21 01:55:00
7:15 PM,59.2,29.3,32,30.07,10.0,North,6.9,-,N/A,,Clear,360,2014-02-21 02:15:00
7:35 PM,57.7,29.1,34,30.07,10.0,North,4.6,-,N/A,,Clear,10,2014-02-21 02:35:00
7:55 PM,56.3,28.9,35,30.08,10.0,North,3.5,-,N/A,,Clear,10,2014-02-21 02:55:00
8:15 PM,56.3,28.4,34,30.08,10.0,North,5.8,-,N/A,,Clear,10,2014-02-21 03:15:00
8:35 PM,54.5,28.6,37,30.08,10.0,NNE,3.5,-,N/A,,Clear,30,2014-02-21 03:35:00
8:55 PM,53.8,28.4,38,30.09,10.0,NNE,3.5,-,N/A,,Clear,20,2014-02-21 03:55:00
9:15 PM,53.6,27.9,37,30.10,10.0,NNE,3.5,-,N/A,,Clear,30,2014-02-21 04:15:00
9:35 PM,53.6,26.6,35,30.10,10.0,NE,4.6,-,N/A,,Clear,40,2014-02-21 04:35:00
9:55 PM,53.1,26.1,35,30.11,10.0,NNE,4.6,-,N/A,,Clear,30,2014-02-21 04:55:00
10:15 PM,52.3,25.7,36,30.11,10.0,Calm,Calm,-,N/A,,Clear,0,2014-02-21 05:15:00
10:35 PM,51.1,25.7,37,30.11,10.0,Calm,Calm,-,N/A,,Clear,0,2014-02-21 05:35:00
10:55 PM,51.1,25.7,37,30.11,10.0,NNE,3.5,-,N/A,,Clear,30,2014-02-21 05:55:00
11:15 PM,50.2,25.7,39,30.11,10.0,Calm,Calm,-,N/A,,Clear,0,2014-02-21 06:15:00
11:35 PM,48.9,25.7,40,30.11,10.0,Calm,Calm,-,N/A,,Clear,0,2014-02-21 06:35:00
11:55 PM,48.4,25.7,41,30.11,10.0,Calm,Calm,-,N/A,,Clear,0,2014-02-21 06:55:00